When you browse on this site, cookies collect data to enhance your experience and personalize the content and advertising you see.
Visit our Privacy Policy to learn more. By continuing to use the site, you agree to this use of cookies and data.
  • In Sweden
  • List of Countries
  • For 7 days
  • Water Temperature
  • Satellite Maps
  • Weather Map
  • Weather Widgets
  • user-avatar
    Login

    Hourly Weather Michurino

    Today, 20 April, Saturday

    Time Temperature Precipitation Wind Pressure Humidity
    00:00 -2°C° 0 mm 4 mps 753 mmHg 59%
    01:00 -1°C° 0 mm 3 mps 752 mmHg 60%
    02:00 -1°C° 0 mm 3 mps 752 mmHg 61%
    03:00 -1°C° 0 mm 3 mps 752 mmHg 62%
    04:00 -1°C° 0 mm 3 mps 752 mmHg 62%
    05:00 -2°C° 0 mm 3 mps 751 mmHg 63%
    06:00 -2°C° 0 mm 4 mps 751 mmHg 58%
    07:00 -1°C° 0 mm 4 mps 751 mmHg 53%
    08:00 0°C° 0 mm 4 mps 751 mmHg 48%
    09:00 +1°C° 0 mm 4 mps 751 mmHg 44%
    10:00 +3°C° 0 mm 4 mps 751 mmHg 41%
    11:00 +3°C° 0 mm 4 mps 751 mmHg 37%
    12:00 +4°C° 0 mm 4 mps 751 mmHg 36%
    13:00 +5°C° 0 mm 4 mps 751 mmHg 34%
    14:00 +5°C° 0 mm 3 mps 751 mmHg 33%
    15:00 +5°C° 0 mm 3 mps 751 mmHg 34%
    16:00 +5°C° 0 mm 3 mps 751 mmHg 36%
    17:00 +7°C° 0 mm 3 mps 751 mmHg 37%
    18:00 +5°C° 0 mm 3 mps 752 mmHg 42%
    19:00 +4°C° 0 mm 3 mps 752 mmHg 46%
    20:00 +4°C° 0 mm 2 mps 752 mmHg 50%
    21:00 +3°C° 0 mm 3 mps 753 mmHg 52%
    22:00 +2°C° 0 mm 3 mps 753 mmHg 53%
    23:00 +1°C° 0 mm 3 mps 753 mmHg 54%

    Tomorrow, 21 April, Sunday

    Time Temperature Precipitation Wind Pressure Humidity
    00:00 +1°C° 0 mm 3 mps 753 mmHg 55%
    01:00 0°C° 0 mm 3 mps 753 mmHg 57%
    02:00 0°C° 0 mm 3 mps 753 mmHg 58%
    03:00 0°C° 0 mm 3 mps 753 mmHg 59%
    04:00 -1°C° 0 mm 3 mps 753 mmHg 59%
    05:00 -1°C° 0 mm 3 mps 754 mmHg 59%
    06:00 0°C° 0 mm 4 mps 754 mmHg 56%
    07:00 +3°C° 0 mm 4 mps 754 mmHg 52%
    08:00 +4°C° 0 mm 4 mps 754 mmHg 49%
    09:00 +5°C° 0 mm 4 mps 755 mmHg 47%
    10:00 +7°C° 0 mm 5 mps 755 mmHg 45%
    11:00 +8°C° 0 mm 5 mps 755 mmHg 43%
    12:00 +8°C° 0.1 mm 5 mps 755 mmHg 43%
    13:00 +10°C° 0.1 mm 4 mps 755 mmHg 43%
    14:00 +10°C° 0.1 mm 4 mps 755 mmHg 42%
    15:00 +10°C° 0.1 mm 4 mps 755 mmHg 43%
    16:00 +8°C° 0.1 mm 4 mps 755 mmHg 43%
    17:00 +8°C° 0.1 mm 4 mps 755 mmHg 43%
    18:00 +8°C° 0 mm 3 mps 755 mmHg 47%
    19:00 +7°C° 0 mm 3 mps 756 mmHg 50%
    20:00 +6°C° 0 mm 2 mps 756 mmHg 54%
    21:00 +5°C° 0 mm 2 mps 756 mmHg 55%
    22:00 +5°C° 0 mm 1 mps 756 mmHg 56%
    23:00 +5°C° 0 mm 1 mps 757 mmHg 57%

    Day after tomorrow, 22 April, Monday

    Time Temperature Precipitation Wind Pressure Humidity
    00:00 +4°C° 0 mm 1 mps 757 mmHg 59%
    01:00 +4°C° 0 mm 1 mps 757 mmHg 61%
    02:00 +3°C° 0 mm 1 mps 757 mmHg 62%
    03:00 +3°C° 0 mm 1 mps 757 mmHg 64%
    04:00 +3°C° 0 mm 1 mps 757 mmHg 65%
    05:00 +2°C° 0 mm 1 mps 757 mmHg 66%
    06:00 +4°C° 0 mm 1 mps 757 mmHg 61%
    07:00 +6°C° 0 mm 1 mps 757 mmHg 55%
    08:00 +7°C° 0 mm 1 mps 758 mmHg 50%
    09:00 +8°C° 0 mm 1 mps 758 mmHg 45%
    10:00 +9°C° 0 mm 1 mps 758 mmHg 40%
    11:00 +10°C° 0 mm 1 mps 758 mmHg 36%
    12:00 +11°C° 0 mm 1 mps 758 mmHg 35%
    13:00 +11°C° 0 mm 1 mps 757 mmHg 34%
    14:00 +10°C° 0 mm 2 mps 757 mmHg 33%
    15:00 +10°C° 0 mm 2 mps 757 mmHg 34%
    16:00 +10°C° 0 mm 2 mps 757 mmHg 34%
    17:00 +12°C° 0 mm 1 mps 757 mmHg 34%
    18:00 +11°C° 0 mm 1 mps 757 mmHg 37%
    19:00 +10°C° 0 mm 1 mps 757 mmHg 41%
    20:00 +8°C° 0 mm 0 mps 757 mmHg 44%
    21:00 +9°C° 0 mm 1 mps 757 mmHg 45%
    22:00 +8°C° 0 mm 1 mps 757 mmHg 46%
    23:00 +7°C° 0 mm 2 mps 756 mmHg 48%

    23 April, Tuesday

    Time Temperature Precipitation Wind Pressure Humidity
    00:00 +6°C° 0 mm 2 mps 756 mmHg 49%
    01:00 +6°C° 0 mm 2 mps 756 mmHg 51%
    02:00 +5°C° 0 mm 2 mps 755 mmHg 53%
    03:00 +4°C° 0 mm 3 mps 755 mmHg 55%
    04:00 +4°C° 0 mm 3 mps 755 mmHg 57%
    05:00 +3°C° 0 mm 3 mps 755 mmHg 60%
    06:00 +5°C° 0 mm 3 mps 755 mmHg 55%
    07:00 +7°C° 0 mm 3 mps 754 mmHg 51%
    08:00 +9°C° 0 mm 3 mps 754 mmHg 46%
    09:00 +10°C° 0 mm 3 mps 754 mmHg 42%
    10:00 +11°C° 0 mm 4 mps 753 mmHg 37%
    11:00 +13°C° 0 mm 4 mps 753 mmHg 33%
    12:00 +13°C° 0 mm 4 mps 752 mmHg 33%
    13:00 +13°C° 0 mm 4 mps 752 mmHg 33%
    14:00 +13°C° 0 mm 4 mps 751 mmHg 33%
    15:00 +13°C° 0 mm 3 mps 751 mmHg 34%
    16:00 +13°C° 0 mm 3 mps 751 mmHg 35%
    17:00 +14°C° 0 mm 2 mps 750 mmHg 36%
    18:00 +13°C° 0 mm 2 mps 750 mmHg 40%
    19:00 +12°C° 0 mm 2 mps 750 mmHg 43%
    20:00 +12°C° 0 mm 2 mps 750 mmHg 46%
    21:00 +10°C° 0 mm 2 mps 750 mmHg 47%
    22:00 +9°C° 0 mm 2 mps 750 mmHg 48%
    23:00 +8°C° 0 mm 2 mps 750 mmHg 49%

    24 April, Wednesday

    Time Temperature Precipitation Wind Pressure Humidity
    00:00 +8°C° 0 mm 3 mps 749 mmHg 53%
    01:00 +7°C° 0 mm 3 mps 749 mmHg 56%
    02:00 +7°C° 0 mm 3 mps 749 mmHg 60%
    03:00 +5°C° 0 mm 3 mps 749 mmHg 67%
    04:00 +5°C° 0 mm 4 mps 749 mmHg 73%
    05:00 +5°C° 0 mm 4 mps 749 mmHg 79%
    06:00 +6°C° 0 mm 4 mps 749 mmHg 73%
    07:00 +8°C° 0 mm 5 mps 749 mmHg 67%
    08:00 +9°C° 0 mm 6 mps 749 mmHg 61%
    09:00 +10°C° 0 mm 6 mps 749 mmHg 57%
    10:00 +11°C° 0 mm 6 mps 749 mmHg 53%
    11:00 +14°C° 0 mm 7 mps 749 mmHg 49%
    12:00 +14°C° 0.3 mm 7 mps 749 mmHg 49%
    13:00 +14°C° 0.3 mm 6 mps 749 mmHg 49%
    14:00 +14°C° 0.3 mm 6 mps 749 mmHg 48%
    15:00 +14°C° 0.1 mm 6 mps 749 mmHg 46%
    16:00 +14°C° 0.1 mm 5 mps 749 mmHg 45%
    17:00 +14°C° 0.1 mm 5 mps 749 mmHg 43%
    18:00 +13°C° 0 mm 4 mps 750 mmHg 45%
    19:00 +12°C° 0 mm 3 mps 750 mmHg 48%
    20:00 +13°C° 0 mm 2 mps 750 mmHg 50%
    21:00 +12°C° 0 mm 2 mps 750 mmHg 52%
    22:00 +10°C° 0 mm 2 mps 750 mmHg 54%
    23:00 +10°C° 0 mm 2 mps 750 mmHg 55%

    25 April, Thursday

    Time Temperature Precipitation Wind Pressure Humidity
    00:00 +9°C° 0 mm 2 mps 750 mmHg 57%
    01:00 +8°C° 0 mm 2 mps 750 mmHg 60%
    02:00 +8°C° 0 mm 2 mps 750 mmHg 62%
    03:00 +8°C° 0 mm 2 mps 750 mmHg 63%
    04:00 +7°C° 0 mm 2 mps 750 mmHg 64%
    05:00 +7°C° 0 mm 2 mps 750 mmHg 65%
    06:00 +8°C° 0 mm 2 mps 750 mmHg 62%
    07:00 +9°C° 0 mm 2 mps 750 mmHg 58%
    08:00 +10°C° 0 mm 2 mps 750 mmHg 55%
    09:00 +10°C° 0.4 mm 2 mps 750 mmHg 59%
    10:00 +9°C° 0.4 mm 2 mps 750 mmHg 62%
    11:00 +9°C° 0.4 mm 2 mps 750 mmHg 66%
    12:00 +9°C° 0.3 mm 2 mps 750 mmHg 64%
    13:00 +9°C° 0.3 mm 2 mps 750 mmHg 61%
    14:00 +10°C° 0.3 mm 2 mps 750 mmHg 59%
    15:00 +10°C° 0 mm 2 mps 750 mmHg 58%
    16:00 +10°C° 0 mm 3 mps 750 mmHg 57%
    17:00 +10°C° 0 mm 3 mps 749 mmHg 56%
    18:00 +10°C° 0 mm 3 mps 750 mmHg 61%
    19:00 +9°C° 0 mm 3 mps 750 mmHg 66%
    20:00 +8°C° 0 mm 3 mps 750 mmHg 71%
    21:00 +7°C° 0 mm 3 mps 750 mmHg 71%
    22:00 +7°C° 0 mm 3 mps 751 mmHg 71%
    23:00 +7°C° 0 mm 3 mps 751 mmHg 70%
    Show more